Voltar ao catálogo

SL-23 R/B

AtivoMEO
NORAD 33059·ROCKET BODY·🇷🇺 Russia

Lançado Apr 28, 2008 de Baikonur Cosmodrome

Loading…

Próximas Passagens (próximas 24 horas)

TLE

AtualizadoSource: Space-Track

Época: Sep 14, 2026, 12:18 UTC

1 33059U 08022B   26257.51299531 -.00000170  00000-0  00000-0 0  9998
2 33059  13.8582  31.7244 0542406  58.3123 130.5833  0.95533797 63823

Acompanhe SL-23 R/B em tempo real com AllMySat

Download on the App Store